Lid_Strength_Index
7 10 12 10 9 9 9 10 10 9 7 9 9 9 8 7 6 6 5 5 5 4 3 2 2 2 1 1 1 1 1 1 0 1 1 1 1 1 0 -0 -1 -1 -1 -1
9 12 8 7 8 9 10 11 11 9 7 9 9 11 9 8 8 7 6 6 5 5 4 3 2 2 1 1 1 1 1 1 1 1 1 1 1 1 0 -0 -0 -1 -1 -1
11 9 7 8 9 10 10 11 11 10 9 8 10 13 11 9 9 7 6 5 5 5 4 4 4 3 2 2 1 1 1 1 1 0 0 0 0 0 1 1 1 -0 -0 -0
9 7 9 9 10 9 12 8 9 10 11 14 10 17 12 11 10 9 8 7 6 5 4 4 3 3 3 2 1 1 1 1 1 0 1 1 2 3 1 1 1 1 1 1
11 9 10 10 10 8 10 8 9 10 11 12 12 15 14 11 12 10 8 7 7 5 5 4 4 3 2 1 1 1 1 1 1 1 1 1 2 1 1 1 1 1 1 1
8 7 8 9 8 8 7 9 10 10 11 17 13 13 16 13 11 10 8 7 6 6 5 4 3 3 2 1 1 1 1 1 1 1 1 1 2 2 2 2 2 1 1 1
11 10 8 7 9 8 9 11 17 18 18 17 12 14 15 11 9 9 9 7 6 5 5 4 4 3 3 2 1 1 1 1 1 1 1 1 1 1 2 2 2 2 1 1
15 16 10 8 9 11 11 11 14 19 17 15 12 17 14 10 8 7 7 7 5 5 5 5 4 4 3 2 2 2 2 2 1 1 1 1 1 1 1 1 1 1 1 1
14 14 9 8 8 8 11 14 9 13 14 16 15 13 11 10 9 8 8 7 6 6 5 6 5 4 4 4 3 2 2 2 1 1 1 1 1 1 1 1 1 1 1 1
10 14 10 9 7 8 9 8 15 14 19 19 17 16 16 12 11 9 8 7 6 6 6 6 5 5 4 3 3 3 2 3 3 2 1 2 1 1 1 1 1 1 1 1
9 11 12 10 12 12 11 12 11 11 13 17 18 17 11 11 10 10 8 7 6 6 6 5 5 4 4 3 3 4 4 4 3 3 3 2 2 1 1 1 1 1 1 1
8 10 14 13 9 8 9 10 11 14 15 13 14 17 10 9 9 8 8 7 7 6 5 5 4 4 4 4 3 3 3 3 3 4 4 4 3 2 1 1 1 1 1 1
9 12 16 15 11 9 12 10 10 10 11 14 17 17 10 9 9 8 7 7 6 6 6 5 5 5 4 3 3 3 3 3 2 3 3 3 3 3 2 1 1 1 1 1
7 11 13 15 13 11 13 12 10 11 16 15 14 14 11 10 8 7 7 6 6 6 6 5 5 4 4 4 4 3 3 2 3 3 3 3 3 3 2 1 1 1 1 1
8 14 12 11 10 11 11 11 11 12 12 14 12 11 11 9 8 7 7 6 5 6 6 5 5 4 4 4 4 3 3 2 3 3 3 3 3 3 2 1 1 1 1 2
8 14 12 14 11 11 13 11 11 10 11 11 11 11 8 7 7 7 6 6 6 6 6 5 4 4 4 3 3 3 3 3 2 3 3 4 3 2 2 2 2 2 2 2
11 13 14 16 12 12 16 12 11 11 10 10 13 10 7 8 7 6 6 6 7 6 5 4 4 4 4 3 3 3 3 3 3 3 4 4 4 3 2 2 3 4 3 3
12 12 13 15 14 20 12 9 9 11 10 9 9 8 7 7 6 5 5 6 6 5 5 5 4 4 4 3 3 3 4 4 5 5 5 5 5 3 3 5 5 5 4 4
8 11 14 16 17 13 12 10 11 11 11 8 9 8 7 6 5 6 5 5 5 4 5 4 4 5 5 5 5 5 6 7 7 8 7 7 7 7 7 7 5 7 9 9
9 9 12 14 17 19 12 10 8 8 14 8 7 7 7 6 10 8 4 4 4 4 4 5 5 5 6 5 6 8 8 8 8 8 9 9 9 9 8 8 10 13 11 13
14 13 15 15 16 13 9 10 8 15 12 8 7 7 7 8 7 5 4 5 5 5 5 5 6 7 7 7 9 9 9 9 9 11 12 12 12 12 12 13 14 13 14 14
14 15 16 14 16 18 8 10 12 9 6 6 7 7 6 5 5 6 6 6 6 6 6 7 8 9 9 9 10 11 11 10 12 13 13 13 14 14 14 14 13 14 14 14
14 11 13 12 13 8 8 8 7 6 7 6 6 5 6 7 7 7 7 7 7 8 8 8 9 10 10 10 11 13 12 13 13 13 14 14 14 14 14 14 13 13 13 14
9 7 11 11 9 8 8 7 6 6 7 6 6 7 7 8 8 9 9 9 9 9 10 10 10 11 11 11 12 12 13 13 14 14 14 14 14 14 14 14 14 14 14 14
9 9 10 10 9 8 7 7 7 7 7 8 8 9 9 9 10 10 11 11 10 11 11 11 11 12 12 12 13 13 13 13 14 14 15 14 14 14 14 15 14 14 14 14
9 10 11 11 8 8 8 7 7 7 8 9 10 10 10 11 12 11 12 11 12 12 12 13 12 12 12 13 14 14 13 13 14 14 14 14 14 14 14 14 15 12 13 13